Location: Indian Hills
(32.9760°N, 85.9450°W)
Time: 15:23:17
(UTC+00:00)

BREEZE-M DEB (TANK) - Pass Details

Date: 09 December 2019
Orbit: 324 x 11936 km, 49.7° (Epoch: 25 January)

Event Time Altitude Azimuth Distance (km) Brightness Sun altitude
Rises 11:37:51 0° 222° (SW) 2,168 6.2 -11.8°
Reaches altitude 10° 11:39:41 10° 218° (SW) 1,230 5.0 -11.5°
Maximum altitude 11:41:55 61° 136° (SE) 398 3.0 -11.0°
Drops below altitude 10° 11:45:02 10° 54° (NE) 1,709 6.4 -10.4°
Sets 11:48:05 0° 51° (NE) 3,253 7.8 -9.8°
